Location: Pallagorio
(39.3000°N, 16.9000°E)
Time: 21:30:56
(UTC+00:00)

NOSS 2-1 (D) - Pass Details

Date: 24 January 2021
Orbit: 434 x 1768 km, 63.3° (Epoch: 27 February)

Event Time Altitude Azimuth Distance (km) Brightness Sun altitude
Rises 16:47:17 0° 206° (SSW) 2,575 7.5 -8.7°
Reaches altitude 10° 16:49:31 10° 203° (SSW) 1,609 6.3 -9.1°
Maximum altitude 16:52:55 65° 122° (ESE) 484 2.9 -9.7°
Enters shadow 16:56:04 11° 40° (NE) 1,500 5.1 -10.3°
